DELTA 1 DEB, 7044

Orbit data source: Space-Track

DELTA 1 DEB, 7044 is space debris in SSO originally from a launch on Tue, 06 Nov 1973 UTC launched from the Air Force Western Test Range (AFWTR). Debris objects in space refer to the collection of defunct objects orbiting the Earth. Examples of debris include non-operational satellites, rocket bodies, and fragments generated from explosions, collisions, or faulty payload assembly.

Loading next visibility...
Identifier
7044, 1973-086AL
Orbit
SSO
Last TLE update
22 hours ago
Origin
Manufacturer
Unknown
Mission
Spacecraft
Bus & Motor
Unknown
Mass
Unknown
Launch date (UTC)
1973-11-06 (52 years ago)
Launch vehicle
Unknown
Launch site
Air Force Western Test Range (AFWTR)
Object type
Payload
Rocket body
Debris
Shape & HBR
Unknown
Radar Cross Section
0.210 m², Medium (>0.1 m² and < 1m²)

Expand to show TLE details & history

TLE from 22 hours ago
0 DELTA 1 DEB
1  7044U 73086AL  25126.18988655  .00000015  00000-0  44255-3 0  9994
2  7044 102.5566 338.7529 0089007 277.1873 198.0491 12.44508037338873
Epoch: 2025-05-06T04:33Z
Definitive object data (Epoch: 2025-05-06T04:33:26.197Z)
Latitude
62.36181°
Longitude
-108.85622°
Altitude
1,564.667 km
Speed
7.061 km/s
True Right ascension
12h 15m 10s
True Declination
62° 14' 05"
Sunlit
Object was in daylight at TLE epoch
Visualization TLE readout
Latitude
-40.7612°
Longitude
-143.96932°
Altitude
1,461.08 km
Speed
7.15 km/s
Apparent Right ascension
08h 03m 06s
Apparent Declination
-82° 24' 38"
Sunlit
Object is in daylight
Visualization observer readout
Local Sidereal Time
10:21:32
Azimuth
185.164° SSW
Elevation
-33.55°
Doppler factor
1
Orbital elements
Apogee altitude
1,555.142 km
Perigee altitude
1,415.164 km
Semi-major axis
7,863.29 km
Eccentricity
0.0089007
Inclination
102.5566°
RAAN
338.7529°
Arg. of periapsis
277.1873°
True anomaly
197.7364°
Mean anomaly
198.0491°
Eccentric anomaly
197.89242°
Mean motion
3.1127 °/min
BSTAR
0.00044255
Orbital period
115.66 mins
Loading maneuver chart data...
Loading SW <> Apogee altitude chart data...
Loading historical data...
Loading historical data...
Loading historical data...
Loading historical data...
Loading historical data...
Loading historical data...
Loading historical data...

DELTA 1 DEB Visibility forecast

Observer location: undefined°, undefined°

Span
Click to sort rows by Start time (UTC) header in descending order
Start Az.
Max El. time (UTC)
Max El. Az.
Max El.
End time (UTC)
End Az.
16 mins2025-05-07 03:41:15.392Z12.499° NNE2025-05-07 03:49:15.392Z308.666° NW41.965°2025-05-07 03:57:15.392Z216.86° SW
7 mins2025-05-07 05:38:15.392Z338.419° N2025-05-07 05:41:15.392Z316.168° NNW15.317°2025-05-07 05:45:15.392Z286.902° WNW
14 mins2025-05-07 12:52:15.392Z124.203° SE2025-05-07 12:58:15.392Z67.766° E35.189°2025-05-07 13:06:15.392Z354.027° N
14 mins2025-05-07 14:45:15.392Z193.405° SSW2025-05-07 14:52:15.392Z263.375° W34.68°2025-05-07 14:59:15.392Z326.26° NNW
4 mins2025-05-08 01:03:15.392Z75.952° E2025-05-08 01:05:15.392Z90.112° ESE11.722°2025-05-08 01:07:15.392Z104.171° ESE
|